User: anonymous
Location: Ostrava
(49.8330°N, 18.2830°E)
Time: 05:57:15
(UTC+02:00)
Language:

Iridium 7 - Orbit

View from above orbital plane
View from above orbital plane
View from above satellite
View from above satellite

Ground track
Ground track

The orbit data is extracted from the following two-line orbital elements,

1 24793U 97020B   14114.46826895  .00000466  00000-0  15946-3 0  7938
2 24793 086.3964 079.5014 0002243 101.7715 017.5755 14.34219804888406
Epoch (UTC): 24 April 2014 11:14:18
Eccentricity: 0.0002243
inclination: 86.3964°
perigee height: 776 km
apogee height: 779 km
right ascension of ascending node: 79.5014°
argument of perigee: 101.7715°
revolutions per day: 14.34219804
mean anomaly at epoch: 17.5755°
orbit number at epoch: 88840

The dashed part of the orbit path shows where the satellite is in the earth's shadow,  

DLR